QPF
0.00 0.00 0.00 0.00 0.00 0.00 0.00 0.00 0.00 0.00 0.00 0.00 0.00 0.00 0.00 0.00 0.00 0.00 0.00 0.00 0.00 0.01 0.01 0.02 0.01 0.01 0.01 0.02 0.02 0.03 0.03 0.03 0.06 0.08 0.08 0.08 0.07 0.06 0.06 0.05 0.06 0.06 0.07
0.00 0.00 0.00 0.00 0.00 0.00 0.00 0.00 0.00 0.00 0.00 0.00 0.00 0.00 0.00 0.00 0.00 0.00 0.00 0.00 0.01 0.01 0.02 0.02 0.02 0.02 0.02 0.02 0.02 0.03 0.04 0.04 0.05 0.08 0.09 0.10 0.11 0.07 0.05 0.04 0.06 0.06 0.06
0.00 0.00 0.00 0.00 0.00 0.00 0.00 0.00 0.00 0.00 0.00 0.00 0.00 0.00 0.00 0.00 0.00 0.00 0.00 0.00 0.00 0.00 0.01 0.01 0.02 0.02 0.02 0.03 0.02 0.02 0.04 0.06 0.06 0.08 0.12 0.12 0.12 0.10 0.06 0.05 0.05 0.06 0.06
0.00 0.00 0.00 0.00 0.00 0.00 0.00 0.00 0.00 0.00 0.00 0.00 0.00 0.00 0.00 0.00 0.00 0.01 0.00 0.00 0.00 0.00 0.01 0.01 0.02 0.02 0.02 0.04 0.03 0.03 0.04 0.06 0.06 0.06 0.08 0.11 0.12 0.15 0.12 0.07 0.05 0.05 0.06
0.00 0.00 0.00 0.00 0.00 0.00 0.00 0.00 0.00 0.00 0.00 0.00 0.00 0.00 0.00 0.00 0.01 0.01 0.01 0.01 0.01 0.01 0.01 0.01 0.02 0.03 0.03 0.03 0.03 0.03 0.04 0.04 0.05 0.05 0.06 0.07 0.08 0.10 0.13 0.10 0.06 0.05 0.05
0.00 0.00 0.00 0.00 0.00 0.00 0.00 0.00 0.00 0.00 0.00 0.00 0.00 0.00 0.00 0.00 0.00 0.00 0.00 0.01 0.02 0.02 0.02 0.01 0.01 0.02 0.02 0.02 0.03 0.02 0.03 0.04 0.04 0.05 0.07 0.08 0.08 0.08 0.09 0.10 0.06 0.05 0.05
0.00 0.00 0.00 0.00 0.00 0.00 0.00 0.00 0.00 0.00 0.00 0.00 0.00 0.00 0.00 0.00 0.00 0.00 0.00 0.00 0.01 0.02 0.02 0.02 0.02 0.01 0.01 0.01 0.02 0.02 0.03 0.04 0.04 0.04 0.05 0.07 0.07 0.07 0.08 0.10 0.06 0.05 0.05
0.00 0.00 0.00 0.00 0.00 0.00 0.00 0.00 0.00 0.00 0.00 0.00 0.00 0.00 0.00 0.00 0.00 0.00 0.00 0.00 0.00 0.01 0.02 0.02 0.02 0.01 0.01 0.01 0.02 0.03 0.03 0.03 0.03 0.03 0.04 0.05 0.04 0.05 0.06 0.08 0.08 0.07 0.05
0.00 0.00 0.00 0.00 0.00 0.00 0.00 0.00 0.00 0.00 0.00 0.00 0.00 0.00 0.00 0.00 0.00 0.00 0.00 0.00 0.00 0.01 0.01 0.01 0.01 0.01 0.01 0.02 0.01 0.02 0.02 0.03 0.03 0.03 0.04 0.04 0.04 0.04 0.05 0.05 0.06 0.09 0.09
0.00 0.00 0.00 0.00 0.00 0.00 0.00 0.00 0.00 0.00 0.00 0.00 0.00 0.00 0.00 0.00 0.00 0.00 0.00 0.00 0.00 0.01 0.02 0.01 0.01 0.01 0.01 0.01 0.02 0.02 0.02 0.03 0.03 0.03 0.03 0.03 0.04 0.03 0.03 0.04 0.04 0.04 0.08
0.00 0.00 0.00 0.00 0.00 0.00 0.00 0.00 0.00 0.00 0.00 0.00 0.00 0.00 0.00 0.00 0.00 0.00 0.00 0.00 0.00 0.00 0.02 0.03 0.01 0.02 0.01 0.01 0.02 0.03 0.03 0.03 0.03 0.03 0.03 0.02 0.03 0.03 0.03 0.03 0.03 0.03 0.04
0.00 0.00 0.00 0.00 0.00 0.00 0.00 0.00 0.00 0.00 0.00 0.00 0.00 0.00 0.00 0.00 0.00 0.00 0.00 0.00 0.00 0.00 0.01 0.03 0.02 0.01 0.01 0.01 0.01 0.02 0.03 0.03 0.04 0.03 0.02 0.02 0.02 0.03 0.03 0.03 0.03 0.03 0.03
0.00 0.00 0.00 0.00 0.00 0.00 0.00 0.00 0.00 0.00 0.00 0.00 0.00 0.00 0.00 0.00 0.00 0.00 0.00 0.00 0.00 0.00 0.00 0.02 0.03 0.03 0.02 0.01 0.01 0.02 0.02 0.03 0.03 0.03 0.03 0.02 0.02 0.02 0.02 0.02 0.03 0.03 0.03
0.00 0.00 0.00 0.00 0.00 0.00 0.00 0.00 0.00 0.00 0.00 0.00 0.00 0.00 0.00 0.00 0.00 0.00 0.00 0.00 0.00 0.00 0.00 0.01 0.03 0.04 0.03 0.02 0.01 0.02 0.03 0.03 0.03 0.02 0.02 0.01 0.02 0.02 0.02 0.02 0.02 0.02 0.03
0.00 0.00 0.00 0.00 0.00 0.00 0.00 0.00 0.00 0.00 0.00 0.00 0.00 0.00 0.00 0.00 0.00 0.00 0.00 0.00 0.00 0.00 0.00 0.01 0.02 0.03 0.03 0.03 0.02 0.02 0.02 0.02 0.02 0.02 0.01 0.01 0.01 0.02 0.02 0.01 0.02 0.02 0.03
0.00 0.00 0.00 0.00 0.00 0.00 0.00 0.00 0.00 0.00 0.00 0.00 0.00 0.00 0.00 0.00 0.00 0.00 0.00 0.00 0.00 0.00 0.00 0.00 0.01 0.02 0.02 0.02 0.02 0.02 0.02 0.02 0.01 0.02 0.01 0.01 0.01 0.01 0.01 0.01 0.02 0.02 0.02
0.00 0.00 0.00 0.00 0.00 0.00 0.00 0.00 0.00 0.00 0.00 0.00 0.00 0.00 0.00 0.00 0.00 0.00 0.00 0.00 0.00 0.00 0.00 0.00 0.00 0.01 0.01 0.01 0.02 0.02 0.02 0.02 0.02 0.02 0.02 0.01 0.01 0.01 0.01 0.02 0.01 0.02 0.01
0.00 0.00 0.00 0.00 0.00 0.00 0.00 0.00 0.00 0.00 0.00 0.00 0.00 0.00 0.00 0.00 0.00 0.00 0.00 0.00 0.00 0.00 0.00 0.00 0.00 0.00 0.01 0.01 0.01 0.01 0.01 0.01 0.01 0.01 0.02 0.01 0.02 0.02 0.02 0.02 0.02 0.02 0.02
0.00 0.00 0.00 0.00 0.00 0.00 0.00 0.00 0.00 0.00 0.00 0.00 0.00 0.00 0.00 0.00 0.00 0.00 0.00 0.00 0.00 0.00 0.00 0.00 0.00 0.00 0.00 0.01 0.00 0.00 0.00 0.01 0.01 0.01 0.01 0.01 0.02 0.02 0.01 0.02 0.02 0.02 0.02
0.00 0.00 0.00 0.00 0.00 0.00 0.00 0.00 0.00 0.00 0.00 0.00 0.00 0.00 0.00 0.00 0.00 0.00 0.00 0.00 0.00 0.00 0.00 0.00 0.00 0.00 0.00 0.00 0.00 0.00 0.00 0.01 0.01 0.01 0.00 0.00 0.01 0.01 0.01 0.02 0.03 0.02 0.01
0.00 0.00 0.00 0.00 0.00 0.00 0.00 0.00 0.00 0.00 0.00 0.00 0.00 0.00 0.00 0.00 0.00 0.00 0.00 0.00 0.00 0.00 0.00 0.00 0.00 0.00 0.00 0.00 0.01 0.01 0.00 0.00 0.01 0.01 0.01 0.01 0.00 0.00 0.00 0.01 0.02 0.02 0.02
0.00 0.00 0.00 0.00 0.00 0.00 0.00 0.00 0.00 0.00 0.00 0.00 0.00 0.00 0.00 0.00 0.00 0.00 0.00 0.00 0.00 0.00 0.00 0.00 0.00 0.00 0.00 0.00 0.00 0.01 0.00 0.00 0.00 0.00 0.00 0.01 0.01 0.01 0.00 0.01 0.01 0.01 0.02
0.00 0.00 0.00 0.00 0.00 0.00 0.00 0.00 0.00 0.00 0.00 0.00 0.00 0.00 0.00 0.00 0.00 0.00 0.00 0.00 0.00 0.00 0.00 0.00 0.00 0.00 0.00 0.00 0.00 0.00 0.00 0.00 0.00 0.01 0.01 0.00 0.01 0.02 0.01 0.01 0.00 0.00 0.01
0.00 0.00 0.00 0.00 0.00 0.00 0.00 0.00 0.00 0.00 0.00 0.00 0.00 0.00 0.00 0.00 0.00 0.00 0.00 0.00 0.00 0.00 0.00 0.00 0.00 0.00 0.00 0.00 0.00 0.00 0.00 0.00 0.00 0.01 0.01 0.00 0.01 0.02 0.02 0.01 0.01 0.01 0.01
0.00 0.00 0.00 0.00 0.00 0.00 0.00 0.00 0.00 0.00 0.00 0.00 0.00 0.00 0.00 0.00 0.00 0.00 0.00 0.00 0.00 0.00 0.00 0.00 0.00 0.00 0.00 0.00 0.00 0.00 0.00 0.00 0.00 0.00 0.01 0.02 0.01 0.01 0.01 0.01 0.01 0.01 0.02
0.00 0.00 0.00 0.00 0.00 0.00 0.00 0.00 0.00 0.00 0.00 0.00 0.00 0.00 0.00 0.00 0.00 0.00 0.00 0.00 0.00 0.00 0.00 0.00 0.00 0.00 0.00 0.00 0.00 0.00 0.00 0.00 0.00 0.00 0.01 0.01 0.01 0.00 0.00 0.00 0.01 0.01 0.02
MSLP
1012.10 1012.39 1012.67 1012.95 1013.20 1013.43 1013.64 1013.86 1014.07 1014.28 1014.47 1014.61 1014.68 1014.67 1014.57 1014.39 1014.17 1013.93 1013.70 1013.52 1013.38 1013.28 1013.20 1013.12 1013.00 1012.84 1012.61 1012.35 1012.06 1011.78 1011.54 1011.36 1011.25 1011.20 1011.18 1011.17 1011.14 1011.07 1010.95 1010.79 1010.61 1010.44 1010.32
1011.98 1012.28 1012.57 1012.85 1013.10 1013.33 1013.56 1013.79 1014.03 1014.26 1014.48 1014.65 1014.75 1014.75 1014.66 1014.48 1014.25 1014.00 1013.78 1013.59 1013.46 1013.38 1013.32 1013.25 1013.14 1012.97 1012.73 1012.44 1012.12 1011.81 1011.55 1011.37 1011.29 1011.27 1011.32 1011.37 1011.40 1011.38 1011.28 1011.11 1010.89 1010.65 1010.45
1011.90 1012.21 1012.51 1012.79 1013.03 1013.26 1013.48 1013.71 1013.96 1014.22 1014.46 1014.66 1014.79 1014.83 1014.75 1014.59 1014.37 1014.12 1013.89 1013.70 1013.57 1013.49 1013.43 1013.36 1013.24 1013.05 1012.80 1012.48 1012.15 1011.83 1011.57 1011.40 1011.34 1011.38 1011.48 1011.60 1011.69 1011.71 1011.64 1011.47 1011.23 1010.95 1010.67
1011.84 1012.16 1012.47 1012.75 1012.99 1013.20 1013.41 1013.63 1013.88 1014.16 1014.42 1014.66 1014.82 1014.90 1014.86 1014.72 1014.52 1014.28 1014.05 1013.85 1013.70 1013.61 1013.53 1013.44 1013.31 1013.11 1012.85 1012.53 1012.19 1011.87 1011.62 1011.47 1011.44 1011.51 1011.66 1011.83 1011.97 1012.03 1011.99 1011.84 1011.59 1011.28 1010.95
1011.76 1012.11 1012.44 1012.72 1012.95 1013.15 1013.34 1013.55 1013.80 1014.08 1014.36 1014.63 1014.83 1014.95 1014.95 1014.86 1014.68 1014.45 1014.22 1014.02 1013.85 1013.73 1013.63 1013.53 1013.39 1013.18 1012.92 1012.61 1012.28 1011.97 1011.74 1011.61 1011.60 1011.69 1011.86 1012.05 1012.22 1012.32 1012.30 1012.16 1011.92 1011.59 1011.24
1011.64 1012.02 1012.37 1012.66 1012.90 1013.09 1013.27 1013.46 1013.70 1013.97 1014.27 1014.56 1014.80 1014.96 1015.01 1014.96 1014.81 1014.60 1014.38 1014.17 1013.99 1013.85 1013.74 1013.62 1013.48 1013.28 1013.04 1012.75 1012.44 1012.16 1011.94 1011.82 1011.81 1011.90 1012.07 1012.26 1012.43 1012.54 1012.53 1012.41 1012.18 1011.86 1011.51
1011.47 1011.87 1012.25 1012.56 1012.80 1012.99 1013.16 1013.34 1013.56 1013.83 1014.13 1014.44 1014.71 1014.90 1015.00 1014.99 1014.87 1014.70 1014.49 1014.28 1014.10 1013.95 1013.83 1013.71 1013.58 1013.41 1013.20 1012.95 1012.67 1012.42 1012.21 1012.09 1012.06 1012.13 1012.26 1012.43 1012.58 1012.68 1012.68 1012.57 1012.36 1012.06 1011.72
1011.22 1011.66 1012.06 1012.39 1012.65 1012.84 1013.00 1013.17 1013.38 1013.64 1013.94 1014.26 1014.55 1014.77 1014.90 1014.93 1014.85 1014.70 1014.51 1014.32 1014.14 1014.00 1013.89 1013.79 1013.69 1013.56 1013.39 1013.18 1012.95 1012.72 1012.53 1012.39 1012.33 1012.35 1012.43 1012.54 1012.66 1012.73 1012.73 1012.63 1012.45 1012.19 1011.87
1010.92 1011.37 1011.79 1012.15 1012.42 1012.62 1012.78 1012.95 1013.16 1013.41 1013.71 1014.02 1014.32 1014.57 1014.73 1014.78 1014.74 1014.61 1014.45 1014.27 1014.11 1013.99 1013.90 1013.84 1013.78 1013.70 1013.58 1013.42 1013.23 1013.03 1012.83 1012.67 1012.57 1012.53 1012.54 1012.60 1012.66 1012.70 1012.69 1012.62 1012.47 1012.25 1011.98
1010.56 1011.02 1011.46 1011.82 1012.11 1012.33 1012.50 1012.68 1012.88 1013.14 1013.43 1013.75 1014.06 1014.31 1014.49 1014.57 1014.55 1014.45 1014.31 1014.16 1014.03 1013.93 1013.87 1013.85 1013.83 1013.80 1013.74 1013.63 1013.47 1013.28 1013.08 1012.89 1012.74 1012.64 1012.59 1012.58 1012.60 1012.61 1012.61 1012.56 1012.45 1012.27 1012.05
1010.16 1010.61 1011.05 1011.42 1011.72 1011.96 1012.16 1012.35 1012.57 1012.83 1013.13 1013.46 1013.77 1014.03 1014.22 1014.32 1014.32 1014.25 1014.14 1014.01 1013.91 1013.84 1013.82 1013.83 1013.85 1013.86 1013.84 1013.76 1013.63 1013.45 1013.25 1013.03 1012.84 1012.68 1012.58 1012.52 1012.50 1012.50 1012.49 1012.47 1012.40 1012.28 1012.10
1009.72 1010.15 1010.57 1010.95 1011.26 1011.52 1011.74 1011.97 1012.22 1012.50 1012.82 1013.16 1013.48 1013.76 1013.96 1014.08 1014.10 1014.06 1013.97 1013.87 1013.79 1013.75 1013.75 1013.79 1013.84 1013.88 1013.88 1013.82 1013.71 1013.53 1013.32 1013.09 1012.86 1012.67 1012.53 1012.44 1012.39 1012.38 1012.38 1012.38 1012.34 1012.26 1012.12
1009.24 1009.63 1010.02 1010.39 1010.71 1011.00 1011.26 1011.52 1011.81 1012.14 1012.49 1012.86 1013.20 1013.50 1013.72 1013.86 1013.91 1013.89 1013.83 1013.76 1013.71 1013.69 1013.70 1013.75 1013.81 1013.86 1013.87 1013.82 1013.71 1013.53 1013.31 1013.07 1012.84 1012.63 1012.47 1012.36 1012.30 1012.29 1012.29 1012.30 1012.28 1012.22 1012.09
1008.70 1009.05 1009.41 1009.76 1010.09 1010.39 1010.70 1011.01 1011.36 1011.74 1012.14 1012.54 1012.92 1013.25 1013.50 1013.67 1013.75 1013.77 1013.74 1013.69 1013.66 1013.65 1013.67 1013.72 1013.77 1013.81 1013.81 1013.75 1013.64 1013.46 1013.25 1013.01 1012.78 1012.58 1012.42 1012.31 1012.25 1012.23 1012.23 1012.23 1012.20 1012.13 1011.99
1008.12 1008.41 1008.74 1009.07 1009.40 1009.72 1010.07 1010.44 1010.84 1011.28 1011.74 1012.19 1012.61 1012.98 1013.27 1013.48 1013.60 1013.65 1013.66 1013.64 1013.63 1013.63 1013.65 1013.68 1013.71 1013.73 1013.71 1013.63 1013.51 1013.34 1013.14 1012.92 1012.72 1012.54 1012.40 1012.30 1012.24 1012.21 1012.19 1012.15 1012.08 1011.97 1011.79
1007.50 1007.75 1008.03 1008.33 1008.66 1009.01 1009.39 1009.81 1010.27 1010.77 1011.28 1011.79 1012.26 1012.67 1013.01 1013.25 1013.42 1013.51 1013.56 1013.57 1013.57 1013.58 1013.59 1013.60 1013.61 1013.59 1013.54 1013.45 1013.33 1013.17 1012.99 1012.80 1012.63 1012.49 1012.38 1012.30 1012.24 1012.19 1012.13 1012.04 1011.90 1011.71 1011.47
1006.89 1007.08 1007.32 1007.61 1007.93 1008.29 1008.70 1009.16 1009.67 1010.21 1010.77 1011.32 1011.83 1012.29 1012.67 1012.96 1013.17 1013.31 1013.39 1013.43 1013.45 1013.46 1013.46 1013.45 1013.43 1013.38 1013.30 1013.20 1013.07 1012.92 1012.77 1012.63 1012.51 1012.41 1012.33 1012.27 1012.21 1012.14 1012.03 1011.87 1011.65 1011.37 1011.03
1006.33 1006.47 1006.68 1006.93 1007.24 1007.61 1008.04 1008.53 1009.07 1009.64 1010.23 1010.81 1011.35 1011.83 1012.24 1012.57 1012.82 1012.99 1013.11 1013.19 1013.22 1013.24 1013.23 1013.20 1013.14 1013.07 1012.97 1012.85 1012.72 1012.59 1012.48 1012.39 1012.31 1012.26 1012.23 1012.19 1012.12 1012.02 1011.86 1011.62 1011.31 1010.94 1010.51
1005.85 1005.96 1006.13 1006.36 1006.65 1007.02 1007.45 1007.95 1008.50 1009.08 1009.68 1010.26 1010.81 1011.31 1011.73 1012.09 1012.37 1012.57 1012.72 1012.82 1012.88 1012.89 1012.88 1012.83 1012.75 1012.65 1012.53 1012.41 1012.28 1012.18 1012.10 1012.05 1012.02 1012.02 1012.02 1012.00 1011.94 1011.82 1011.61 1011.31 1010.93 1010.47 1009.96
1005.48 1005.55 1005.69 1005.89 1006.17 1006.52 1006.95 1007.44 1007.98 1008.56 1009.14 1009.71 1010.25 1010.74 1011.17 1011.53 1011.83 1012.06 1012.23 1012.35 1012.42 1012.45 1012.43 1012.37 1012.28 1012.16 1012.02 1011.89 1011.77 1011.68 1011.63 1011.62 1011.64 1011.68 1011.71 1011.71 1011.66 1011.52 1011.29 1010.95 1010.52 1010.01 1009.44
1005.20 1005.23 1005.34 1005.52 1005.77 1006.11 1006.52 1007.00 1007.52 1008.07 1008.62 1009.17 1009.68 1010.15 1010.57 1010.93 1011.24 1011.48 1011.68 1011.82 1011.91 1011.94 1011.93 1011.86 1011.76 1011.63 1011.48 1011.35 1011.23 1011.15 1011.12 1011.13 1011.18 1011.25 1011.31 1011.34 1011.30 1011.17 1010.93 1010.58 1010.13 1009.61 1009.03
1004.96 1004.95 1005.02 1005.17 1005.41 1005.73 1006.12 1006.57 1007.07 1007.58 1008.11 1008.62 1009.10 1009.54 1009.95 1010.31 1010.61 1010.88 1011.09 1011.26 1011.37 1011.42 1011.42 1011.37 1011.27 1011.13 1010.98 1010.84 1010.72 1010.64 1010.62 1010.64 1010.71 1010.80 1010.88 1010.92 1010.90 1010.79 1010.57 1010.25 1009.82 1009.32 1008.76
1004.67 1004.62 1004.66 1004.78 1005.00 1005.30 1005.68 1006.11 1006.57 1007.06 1007.55 1008.03 1008.49 1008.91 1009.31 1009.66 1009.98 1010.27 1010.51 1010.71 1010.85 1010.94 1010.96 1010.93 1010.85 1010.72 1010.58 1010.44 1010.32 1010.24 1010.20 1010.23 1010.29 1010.38 1010.47 1010.54 1010.54 1010.46 1010.28 1010.00 1009.62 1009.17 1008.66
1004.27 1004.17 1004.18 1004.28 1004.48 1004.76 1005.12 1005.54 1005.99 1006.46 1006.93 1007.38 1007.82 1008.24 1008.63 1009.00 1009.34 1009.66 1009.94 1010.18 1010.38 1010.51 1010.58 1010.59 1010.54 1010.44 1010.32 1010.18 1010.06 1009.98 1009.94 1009.95 1010.00 1010.09 1010.18 1010.25 1010.28 1010.23 1010.10 1009.88 1009.57 1009.19 1008.75
1003.71 1003.57 1003.54 1003.62 1003.80 1004.08 1004.42 1004.83 1005.27 1005.73 1006.19 1006.64 1007.08 1007.50 1007.91 1008.30 1008.68 1009.04 1009.38 1009.68 1009.94 1010.14 1010.28 1010.35 1010.35 1010.30 1010.20 1010.09 1009.99 1009.90 1009.85 1009.85 1009.89 1009.96 1010.05 1010.12 1010.17 1010.16 1010.08 1009.92 1009.68 1009.37 1009.01
1003.02 1002.83 1002.76 1002.82 1002.98 1003.25 1003.59 1003.99 1004.43 1004.88 1005.35 1005.81 1006.26 1006.70 1007.14 1007.57 1008.00 1008.41 1008.82 1009.19 1009.53 1009.81 1010.03 1010.18 1010.25 1010.26 1010.23 1010.16 1010.08 1010.00 1009.96 1009.95 1009.98 1010.04 1010.11 1010.19 1010.25 1010.27 1010.23 1010.13 1009.95 1009.71 1009.41
Thickness
5749 5746 5740 5736 5733 5729 5725 5720 5715 5711 5706 5703 5699 5695 5692 5690 5688 5685 5681 5678 5677 5675 5675 5675 5674 5674 5675 5676 5679 5682 5684 5688 5693 5695 5697 5703 5709 5712 5716 5721 5726 5730 5733
5748 5743 5739 5736 5733 5728 5724 5720 5715 5711 5706 5700 5697 5693 5690 5688 5685 5682 5679 5676 5674 5672 5673 5672 5672 5671 5671 5672 5674 5676 5678 5683 5687 5689 5689 5692 5697 5704 5710 5714 5718 5724 5727
5748 5744 5738 5735 5732 5727 5723 5718 5714 5710 5705 5700 5697 5693 5690 5687 5685 5681 5678 5674 5671 5670 5669 5669 5669 5669 5670 5670 5670 5672 5673 5676 5682 5686 5686 5686 5689 5696 5703 5708 5713 5716 5720
5749 5745 5739 5735 5732 5728 5724 5719 5715 5710 5705 5701 5696 5692 5687 5684 5681 5679 5676 5674 5671 5669 5668 5667 5667 5667 5668 5668 5669 5671 5671 5672 5675 5680 5683 5686 5688 5688 5692 5700 5706 5710 5713
5750 5745 5741 5737 5734 5729 5724 5720 5715 5711 5706 5701 5695 5691 5688 5685 5682 5679 5676 5674 5672 5669 5668 5666 5666 5666 5667 5667 5667 5667 5669 5671 5672 5675 5678 5681 5684 5688 5688 5689 5695 5702 5707
5750 5747 5743 5738 5734 5729 5724 5719 5715 5710 5705 5701 5697 5693 5687 5683 5680 5677 5675 5673 5672 5669 5668 5666 5666 5666 5666 5665 5665 5666 5667 5668 5670 5673 5675 5677 5679 5681 5684 5685 5689 5694 5699
5750 5745 5741 5737 5732 5728 5723 5719 5715 5710 5706 5702 5698 5694 5689 5685 5681 5678 5675 5673 5671 5669 5667 5666 5666 5665 5664 5664 5664 5665 5666 5668 5668 5671 5673 5676 5678 5679 5680 5682 5684 5688 5693
5749 5745 5743 5738 5733 5729 5725 5720 5716 5711 5706 5702 5699 5695 5691 5687 5683 5679 5676 5674 5672 5669 5667 5666 5665 5663 5663 5663 5664 5664 5665 5667 5668 5670 5671 5673 5675 5677 5678 5679 5680 5682 5686
5749 5746 5743 5739 5735 5730 5726 5722 5717 5712 5708 5704 5700 5696 5692 5687 5684 5681 5678 5675 5673 5670 5668 5666 5665 5664 5662 5662 5663 5663 5664 5665 5667 5668 5670 5671 5672 5674 5675 5677 5678 5677 5679
5750 5747 5744 5740 5737 5733 5728 5723 5718 5714 5709 5706 5701 5696 5693 5689 5685 5682 5678 5676 5674 5671 5669 5667 5665 5664 5663 5662 5662 5663 5663 5664 5665 5665 5667 5668 5671 5672 5673 5674 5676 5677 5677
5750 5748 5745 5742 5738 5734 5729 5724 5719 5715 5711 5707 5703 5698 5695 5690 5686 5683 5680 5677 5675 5672 5670 5668 5666 5665 5664 5663 5662 5663 5663 5663 5664 5665 5665 5666 5668 5669 5670 5671 5672 5673 5674
5752 5749 5745 5741 5737 5734 5730 5726 5721 5717 5712 5708 5704 5699 5695 5691 5687 5684 5681 5679 5676 5674 5671 5669 5667 5666 5664 5663 5663 5662 5662 5662 5663 5663 5663 5664 5665 5665 5667 5667 5669 5670 5671
5751 5749 5745 5741 5737 5734 5731 5727 5723 5718 5714 5709 5704 5700 5696 5692 5688 5685 5682 5680 5678 5675 5673 5670 5668 5667 5666 5664 5663 5663 5663 5663 5663 5663 5663 5663 5663 5662 5664 5664 5666 5667 5668
5751 5749 5744 5741 5738 5736 5732 5729 5724 5719 5714 5710 5705 5700 5697 5693 5689 5687 5683 5681 5679 5677 5674 5672 5670 5668 5667 5666 5665 5664 5664 5663 5663 5663 5662 5662 5662 5661 5662 5662 5664 5664 5664
5750 5748 5745 5744 5740 5737 5733 5729 5725 5720 5715 5710 5705 5702 5698 5694 5690 5687 5685 5681 5678 5677 5675 5673 5671 5669 5668 5666 5665 5665 5664 5663 5662 5662 5661 5660 5658 5657 5658 5660 5661 5661 5661
5751 5750 5748 5745 5741 5738 5733 5729 5724 5721 5716 5711 5706 5702 5698 5694 5690 5687 5685 5682 5678 5677 5675 5673 5672 5669 5667 5664 5661 5662 5663 5663 5662 5660 5660 5659 5658 5655 5654 5654 5655 5656 5658
5753 5751 5750 5747 5745 5742 5737 5730 5726 5722 5717 5712 5706 5702 5699 5694 5690 5688 5685 5681 5679 5677 5675 5674 5672 5670 5666 5663 5661 5660 5662 5662 5662 5660 5659 5658 5657 5655 5656 5655 5653 5653 5653
5754 5752 5751 5749 5747 5744 5738 5733 5727 5722 5717 5712 5707 5702 5698 5694 5690 5687 5684 5681 5680 5677 5674 5673 5671 5669 5666 5663 5661 5660 5662 5662 5661 5660 5659 5657 5656 5655 5654 5655 5655 5656 5656
5756 5754 5751 5749 5746 5741 5737 5731 5726 5721 5716 5711 5707 5702 5698 5693 5689 5686 5683 5682 5680 5677 5675 5673 5670 5669 5667 5663 5660 5659 5662 5662 5661 5659 5657 5656 5655 5651 5649 5651 5652 5653 5654
5752 5750 5747 5746 5742 5738 5735 5729 5725 5720 5715 5710 5706 5702 5698 5693 5689 5686 5683 5681 5679 5676 5675 5674 5672 5670 5668 5663 5660 5657 5662 5661 5660 5658 5656 5651 5650 5648 5646 5650 5650 5650 5651
5747 5745 5743 5740 5738 5735 5731 5726 5723 5719 5715 5710 5706 5701 5696 5692 5689 5685 5683 5680 5678 5675 5674 5673 5672 5670 5666 5663 5658 5656 5658 5658 5658 5657 5655 5652 5646 5644 5644 5644 5647 5646 5646
5741 5739 5737 5735 5733 5731 5727 5724 5719 5717 5712 5707 5702 5698 5694 5691 5688 5684 5680 5678 5676 5674 5673 5672 5670 5669 5667 5661 5658 5654 5653 5652 5654 5653 5652 5649 5643 5641 5641 5642 5641 5641 5641
5736 5734 5732 5729 5727 5725 5723 5720 5715 5712 5708 5702 5698 5695 5692 5688 5685 5682 5679 5676 5674 5673 5672 5670 5668 5667 5665 5662 5655 5652 5650 5648 5648 5649 5645 5642 5639 5638 5639 5637 5637 5638 5641
5731 5729 5727 5725 5722 5719 5717 5716 5712 5708 5704 5699 5696 5692 5689 5686 5682 5678 5676 5673 5671 5669 5668 5666 5664 5663 5662 5659 5655 5654 5651 5647 5645 5645 5641 5637 5635 5635 5634 5635 5636 5637 5637
5725 5724 5723 5721 5719 5715 5712 5709 5707 5703 5700 5696 5693 5689 5685 5682 5678 5674 5669 5667 5663 5661 5659 5660 5659 5656 5655 5650 5644 5644 5646 5644 5642 5639 5638 5637 5636 5634 5634 5633 5632 5631 5631
5720 5718 5717 5716 5714 5711 5707 5704 5700 5698 5696 5692 5689 5685 5680 5676 5673 5669 5662 5654 5653 5649 5647 5646 5646 5647 5642 5639 5638 5636 5634 5633 5631 5632 5632 5629 5627 5626 5624 5624 5623 5622 5621